RH
83 88 98 96 95 94 98 100 99 90 92 74 85 86 99 88 83 85 83 74 87 67 56 47 54 45 39 29 21 23 19 26 40 35 36 34 33 26 19 17 15 13 12
70 92 99 97 95 100 100 100 100 100 100 100 100 100 100 96 91 82 89 94 66 49 55 52 45 37 37 29 31 34 32 55 68 43 35 35 34 23 22 19 15 13 13
98 98 92 92 88 100 100 94 94 100 90 100 99 96 94 90 69 93 81 63 53 55 54 46 68 57 38 35 45 48 39 82 72 52 29 27 24 21 19 16 14 13 13
100 97 69 96 96 97 95 91 95 94 96 90 99 94 90 85 64 62 60 54 71 60 52 47 61 42 42 59 55 47 64 75 49 51 36 30 29 34 27 19 13 27 25
88 98 99 100 100 100 99 96 98 98 100 100 98 74 71 69 67 70 78 87 69 69 49 60 41 42 58 52 64 63 74 60 42 41 36 32 34 23 14 13 16 39 29
89 97 100 100 100 100 98 100 100 85 100 79 66 90 56 68 94 70 93 76 69 64 62 59 57 65 61 59 66 79 70 60 35 42 44 40 25 13 11 12 13 14 16
100 100 100 99 87 100 100 93 99 100 82 64 92 91 100 72 86 86 78 73 48 54 76 75 65 71 59 71 65 60 47 35 39 46 48 36 24 12 13 12 12 14 15
100 100 100 100 100 100 100 100 91 76 94 97 96 81 90 100 100 73 73 85 92 86 83 74 74 76 77 79 66 23 39 34 33 42 39 35 20 13 15 17 15 16 15
99 99 100 100 100 100 100 100 100 100 100 93 80 100 89 94 100 66 82 89 98 86 76 67 78 92 90 74 30 22 19 25 38 32 36 33 19 18 18 20 20 20 17
100 100 99 96 100 100 97 89 100 100 98 100 100 100 100 99 96 80 96 91 87 78 71 77 96 65 70 45 30 23 14 29 41 27 16 18 19 22 19 21 22 22 19
100 100 100 100 100 100 100 98 100 100 100 100 100 97 85 99 92 82 93 85 74 69 81 81 72 69 48 38 34 28 18 23 23 18 18 21 17 19 22 23 21 21 20
100 100 100 100 100 100 100 100 100 96 88 92 100 83 100 97 98 95 87 73 73 77 86 67 51 45 42 39 35 44 33 38 36 32 27 24 23 23 18 20 23 24 24
100 99 100 96 90 86 100 100 100 100 100 100 100 93 100 92 80 89 78 70 77 81 51 49 42 43 34 33 30 29 46 40 39 40 41 37 28 23 24 20 20 22 26
100 100 100 100 100 100 100 100 100 100 100 97 98 94 83 80 80 96 95 89 77 67 64 55 46 39 35 28 30 29 35 36 37 42 35 38 36 27 24 26 24 25 27
99 100 100 100 100 100 100 100 100 97 91 96 97 86 79 86 83 97 82 90 84 73 76 49 32 32 36 48 74 40 31 35 51 51 38 36 35 32 30 30 31 31 34
100 100 100 100 100 100 100 91 99 84 100 100 99 92 87 100 100 100 75 65 55 41 41 36 41 59 92 93 77 68 57 63 70 63 36 35 37 38 38 37 35 36 38
97 99 100 90 75 62 83 100 100 79 77 94 93 76 87 91 85 79 82 73 72 86 72 98 100 100 100 100 95 88 78 79 77 40 50 53 51 52 49 43 37 36 34
100 99 100 93 99 97 94 89 83 74 92 73 76 67 73 63 76 99 100 100 94 100 100 100 100 100 98 92 74 65 42 38 45 57 59 58 54 53 53 52 47 43 38
78 74 73 73 71 65 58 65 79 74 93 100 100 73 62 84 100 100 100 100 100 100 99 84 75 61 45 38 36 41 50 55 54 55 56 57 59 58 58 52 55 51 54
55 39 26 34 52 65 65 74 86 93 88 66 46 32 33 36 38 45 48 55 71 58 41 34 34 40 48 54 57 56 55 56 61 67 69 74 71 72 70 67 64 58 50
37 41 54 64 65 64 54 47 39 32 28 25 23 24 27 32 34 35 37 40 46 49 52 51 51 54 58 54 54 56 71 82 81 71 67 62 58 58 61 63 66 66 67
65 66 57 42 32 20 19 20 22 26 33 37 40 47 53 57 56 55 52 50 53 54 53 53 48 48 50 63 71 60 52 55 50 45 40 37 33 31 32 33 35 39 47
28 20 19 23 30 38 43 48 50 50 52 53 54 54 53 52 53 54 53 52 52 51 48 48 57 63 51 44 44 47 52 51 45 48 42 38 38 37 36 34 30 28 27
31 40 49 53 54 56 54 52 52 51 50 53 55 56 56 56 52 49 49 48 47 43 43 49 43 43 48 50 57 61 60 57 48 44 45 41 40 38 33 28 25 25 22
50 55 56 52 48 46 45 41 37 34 34 34 34 33 32 32 32 34 38 44 48 47 42 43 49 54 57 61 70 72 69 59 53 42 25 19 18 16 14 12 11 10 8
52 47 43 39 35 31 30 30 30 30 32 34 31 30 31 34 35 35 35 37 40 46 53 57 64 60 68 73 68 58 52 40 27 16 13 10 9 8 6 6 5 5 5
Wind_Speed
81 82 81 82 81 82 81 82 83 82 82 85 85 83 83 82 83 82 81 80 79 82 86 89 85 86 86 83 82 77 71 62 58 62 64 57 50 47 45 44 46 45 42
83 84 83 81 80 83 84 84 85 83 82 82 80 79 75 78 76 81 79 76 82 84 83 79 84 86 84 92 81 84 68 63 56 63 52 49 47 47 47 49 48 45 40
80 83 82 81 82 79 83 84 85 83 85 81 82 78 75 75 74 76 78 84 84 84 82 86 81 84 90 82 81 73 69 58 58 58 50 46 44 43 45 47 48 46 44
80 86 82 81 81 79 78 76 77 79 79 81 72 66 72 69 79 83 85 87 78 82 85 84 82 89 86 78 78 66 62 53 57 49 50 46 42 44 45 42 41 37 38
74 80 81 74 74 74 74 81 75 74 71 67 65 70 75 81 83 86 81 80 81 83 88 86 88 86 74 75 66 62 55 56 48 49 46 45 45 42 40 34 32 32 32
73 74 77 77 77 75 59 60 64 68 65 68 73 74 77 78 83 87 83 85 83 89 86 85 85 81 73 67 64 57 55 50 47 42 43 42 41 38 31 27 27 27 26
70 73 68 68 74 72 75 77 72 71 72 77 75 81 82 83 82 81 82 85 91 84 84 78 80 69 69 66 55 54 50 45 42 41 41 40 39 33 29 27 24 24 26
71 73 75 68 64 67 67 62 75 82 81 77 85 85 81 77 80 78 84 89 86 78 76 80 76 70 65 58 55 48 44 38 38 40 40 40 39 33 27 25 23 25 28
75 74 74 73 69 75 69 70 71 75 85 86 82 77 81 81 80 89 90 83 81 79 84 84 72 62 60 53 47 44 43 37 35 34 38 41 40 36 30 28 26 26 28
63 65 67 76 67 65 76 82 84 85 79 73 71 75 74 80 82 88 82 82 84 86 83 73 62 66 58 49 42 44 41 37 37 36 38 40 42 43 37 32 30 27 27
61 65 60 64 69 68 69 69 66 78 77 77 82 84 92 86 85 81 83 83 86 84 71 66 67 57 52 43 40 40 36 37 37 38 42 45 44 42 42 38 34 32 30
73 73 78 82 69 71 78 74 70 75 83 85 78 80 80 84 83 84 88 87 83 79 73 70 58 52 50 47 44 41 43 43 43 44 45 46 45 46 45 45 41 37 36
74 79 70 74 83 85 73 70 72 78 76 79 83 84 78 82 89 86 91 90 81 75 77 62 53 50 50 52 54 48 49 50 48 48 49 51 53 50 48 49 48 46 42
60 63 61 56 60 68 73 71 72 71 70 76 77 80 84 87 88 84 84 79 72 64 60 53 59 55 61 59 56 55 57 57 58 61 59 63 60 56 55 53 54 53 50
71 67 65 71 68 67 66 66 66 71 77 77 79 80 86 82 83 81 72 70 63 58 59 65 63 64 63 59 66 69 66 70 73 75 72 70 65 61 58 56 56 58 57
48 52 57 58 62 61 65 71 75 79 77 79 79 76 72 72 72 71 73 64 62 66 67 69 70 72 75 73 80 81 83 84 85 88 83 74 71 66 60 55 55 58 60
56 55 57 63 68 70 71 73 78 80 79 74 71 72 65 62 65 63 64 65 68 69 72 76 77 74 72 88 88 90 92 93 92 85 81 76 71 69 68 65 62 60 61
57 57 59 62 66 69 68 67 66 66 65 71 66 61 61 61 59 61 66 70 72 73 72 74 81 87 90 92 95 95 93 91 86 83 80 79 75 74 72 71 70 68 66
46 50 55 55 58 58 55 55 57 58 57 56 58 62 61 60 62 66 68 75 75 80 86 88 89 91 91 90 90 90 90 88 86 85 81 79 78 77 78 74 77 77 75
45 47 50 50 48 49 52 51 50 51 55 59 62 63 63 65 68 71 74 77 82 86 88 88 87 87 87 88 89 89 88 84 80 80 80 83 84 83 85 85 83 84 83
42 45 45 47 47 46 47 50 52 54 57 60 63 65 66 67 69 71 72 75 78 80 83 84 86 87 88 85 85 83 82 83 85 88 91 95 97 97 97 98 97 95 95
38 39 39 40 43 44 46 50 53 54 56 58 60 62 65 68 71 74 77 79 81 83 83 85 85 85 85 80 82 86 88 94 98 101 103 108 110 109 112 113 112 111 109
31 34 37 39 41 43 45 48 51 54 57 60 64 66 68 71 74 76 79 81 82 83 85 84 81 81 86 91 90 95 101 105 106 111 115 117 121 121 122 122 122 121 122
31 31 34 37 40 43 47 51 55 58 60 64 67 69 72 74 77 79 80 81 82 83 81 79 84 90 92 98 101 108 109 112 114 116 119 119 119 121 122 120 118 119 118
28 32 36 41 44 48 52 56 59 62 65 67 70 73 74 74 73 71 71 72 74 76 82 88 91 94 100 104 110 114 118 120 122 122 113 114 116 116 116 115 114 113 113
34 36 39 43 47 50 54 57 60 63 64 65 65 64 64 64 64 66 68 73 78 84 88 93 98 102 106 112 116 119 121 122 119 116 114 112 114 115 110 107 106 106 103
Wind_Direction
266 267 267 268 269 267 269 272 274 277 279 280 281 282 283 286 286 288 290 291 292 296 300 299 302 301 302 305 311 311 310 305 302 306 303 298 295 291 287 288 284 282 278
267 266 268 270 270 268 271 273 276 277 279 279 277 280 283 285 286 289 291 291 290 297 300 301 301 303 305 307 310 315 311 306 299 303 297 293 287 286 285 288 285 282 280
267 267 269 268 270 274 274 275 277 278 279 279 278 278 282 281 287 290 292 295 297 297 299 303 303 302 306 310 311 312 310 304 301 301 297 292 285 285 284 283 284 285 280
269 271 270 270 272 272 273 276 280 279 278 278 278 282 281 283 294 294 295 296 296 296 303 303 302 305 308 311 310 307 304 299 301 295 295 290 284 291 289 288 286 284 279
270 271 273 274 274 273 273 274 279 277 275 275 276 281 286 290 295 295 297 293 298 300 303 302 305 308 308 310 307 305 301 299 296 296 293 290 291 295 289 289 289 277 278
276 272 270 272 276 274 277 274 283 277 276 281 288 286 293 293 293 295 292 296 300 303 302 303 306 308 308 307 307 303 300 298 300 292 290 292 293 300 287 284 287 281 281
261 265 263 264 272 271 270 275 278 283 283 285 284 291 294 296 295 295 296 298 300 299 299 302 304 305 305 305 301 299 299 299 294 290 291 296 297 296 288 287 280 277 278
255 260 264 264 268 268 270 271 275 279 284 283 288 292 296 295 292 296 297 299 299 297 298 304 303 303 303 297 296 299 296 291 293 290 292 294 298 293 287 283 282 280 276
259 263 255 259 265 275 275 274 278 278 283 289 291 291 290 291 292 296 294 296 297 296 301 299 300 298 295 297 295 296 294 291 289 294 295 296 297 295 284 284 282 281 276
252 259 266 265 267 266 270 273 277 282 289 286 288 294 290 290 290 292 294 296 295 299 300 298 294 299 295 291 295 295 294 290 287 292 298 292 293 290 282 284 282 281 279
251 255 253 259 264 266 268 274 280 286 284 283 287 286 290 291 291 290 296 296 298 299 297 292 292 290 288 286 295 298 294 293 292 293 299 299 298 292 281 284 281 279 277
249 253 253 257 260 264 270 279 282 280 282 283 284 285 287 289 295 294 295 297 298 295 291 292 291 288 281 284 290 291 289 294 295 293 295 297 297 296 286 278 277 277 278
254 256 261 266 268 272 268 275 278 283 281 282 283 285 287 290 295 295 294 297 298 293 295 295 295 286 286 291 289 293 293 294 293 292 296 295 292 296 289 280 276 273 273
251 258 258 267 265 268 270 271 273 277 279 284 283 286 292 294 294 293 293 294 295 293 293 289 297 290 295 292 301 302 301 301 299 299 298 298 294 287 291 281 277 273 270
257 253 260 263 268 271 274 270 273 283 287 285 284 291 292 294 294 290 292 292 290 290 283 289 292 295 298 304 300 303 300 300 300 300 298 295 290 286 285 280 274 271 271
253 259 261 260 260 265 274 275 282 283 282 284 288 290 292 291 292 292 297 293 293 293 298 299 301 304 304 302 300 298 298 298 299 298 297 293 289 285 281 277 274 271 269
262 264 263 265 268 273 276 276 279 282 282 288 288 289 290 289 289 290 294 296 297 298 298 301 303 299 292 288 293 294 294 295 295 294 293 290 288 286 283 280 274 267 266
259 264 268 268 272 274 278 279 283 286 285 286 286 287 289 288 286 288 289 291 291 294 292 288 280 285 287 289 290 291 293 293 291 290 288 286 283 281 278 277 274 270 264
264 269 270 272 275 277 279 280 283 284 287 286 286 289 289 286 286 287 290 288 285 283 286 287 287 288 289 291 291 290 290 290 290 289 287 284 282 280 277 273 271 268 266
266 268 270 273 275 276 275 278 281 282 282 284 285 286 288 287 286 285 285 284 283 284 286 287 288 289 289 290 290 290 290 290 289 289 289 286 284 281 278 276 273 270 266
264 265 267 270 273 277 279 279 280 282 284 285 287 289 289 289 290 290 289 288 288 288 289 290 290 290 289 289 289 291 291 291 291 290 288 285 283 280 277 275 273 270 267
268 270 273 278 282 284 286 286 287 289 290 291 293 294 294 293 292 291 291 291 290 290 290 290 291 291 292 291 290 290 292 290 288 285 282 281 280 278 275 272 269 265 262
278 283 287 291 293 293 295 295 294 293 293 292 292 292 292 291 291 291 291 291 290 291 291 291 290 290 292 294 293 292 291 291 288 288 287 284 281 279 276 273 270 267 263
292 295 297 298 298 296 295 294 293 292 291 290 288 287 287 287 287 287 287 287 287 287 289 291 294 296 296 297 296 295 292 289 285 286 286 284 280 278 275 274 272 270 268
298 298 297 297 298 297 294 290 288 287 286 285 284 285 286 287 288 290 291 291 292 293 295 297 298 299 298 295 294 292 292 291 290 290 287 284 281 279 277 275 274 273 271
306 303 300 297 297 295 295 294 294 293 292 291 291 291 291 293 294 295 296 298 298 298 299 299 298 297 295 295 294 293 292 292 291 290 287 284 283 281 280 277 274 273 271